Location: The Saddle
(36.8333°N, 80.3417°W)
Time: 19:18:51
(UTC-05:00)

SR - All Passes

Search period start: 03 December 2023 00:00
Search period end: 13 December 2023 00:00
Orbit: 571 x 872 km, 66.7° (Epoch: 03 December)

Date Brightness Start Highest point End Pass type
(mag) Time Alt. Az. Time Alt. Az. Time Alt. Az.
03 Dec - 11:36:16 10° SSW 11:41:35 65° ESE 11:47:18 10° NNE daylight
03 Dec - 13:20:04 10° W 13:24:06 20° NW 13:28:18 10° N daylight
03 Dec - 20:19:34 10° N 20:24:39 31° NE 20:29:27 10° ESE visible
03 Dec - 22:01:28 10° NW 22:06:39 36° WSW 22:11:28 10° S night (unlit)
04 Dec - 10:45:39 10° SSE 10:50:18 30° ESE 10:55:14 10° NE daylight
04 Dec - 12:27:05 10° WSW 12:32:08 37° NW 12:37:29 10° NNE daylight
04 Dec - 19:28:55 10° N 19:32:36 17° NE 19:36:10 10° E visible
04 Dec - 21:09:34 10° NNW 21:15:19 79° WSW 21:20:37 10° SSE visible
05 Dec - 09:56:33 10° SE 09:59:14 14° ESE 10:02:00 10° ENE daylight
05 Dec - 11:34:59 10° SSW 11:40:24 73° WNW 11:46:13 10° NNE daylight
05 Dec - 13:20:58 10° WNW 13:23:28 13° NW 13:26:00 10° NNW daylight
05 Dec - 20:18:07 10° NNW 20:23:43 51° ENE 20:28:56 10° SE visible
05 Dec - 22:01:10 10° WNW 22:05:11 20° WSW 22:09:00 10° SSW night (unlit)
06 Dec - 10:43:41 10° S 10:48:56 55° ESE 10:54:33 10° NE daylight
06 Dec - 12:26:55 10° W 12:31:18 23° NW 12:35:52 10° N daylight
06 Dec - 19:27:03 10° N 19:31:51 27° NE 19:36:25 10° ESE visible
06 Dec - 21:08:40 10° NW 21:14:01 44° WSW 21:18:59 10° S visible
07 Dec - 09:53:18 10° SSE 09:57:42 26° ESE 10:02:19 10° NE daylight
07 Dec - 11:34:09 10° SW 11:39:22 43° NW 11:44:54 10° NNE daylight
07 Dec - 18:36:35 10° N 18:39:44 15° NE 18:42:47 10° ENE visible
07 Dec - 20:16:52 10° NNW 20:22:37 88° ENE 20:27:55 10° SSE visible
07 Dec - 22:02:41 10° W 22:03:35 10° W 22:04:30 10° WSW night (unlit)
08 Dec - 09:05:03 10° ESE 09:06:39 11° E 09:08:17 10° E daylight
08 Dec - 10:42:14 10° SSW 10:47:41 86° WNW 10:53:32 10° NNE daylight
08 Dec - 12:27:26 10° WNW 12:30:35 15° NW 12:33:48 10° N daylight
08 Dec - 19:25:29 10° NNW 19:30:56 43° NE 19:36:02 10° SE visible
08 Dec - 21:08:08 10° NW 21:12:34 24° WSW 21:16:46 10° SSW visible
09 Dec - 09:51:07 10° S 09:56:16 45° ESE 10:01:45 10° NE daylight
09 Dec - 11:33:47 10° WSW 11:38:27 27° NW 11:43:20 10° N daylight
09 Dec - 18:34:31 10° N 18:39:01 23° NE 18:43:17 10° E visible
09 Dec - 20:15:50 10° NW 20:21:21 53° WSW 20:26:26 10° S visible
10 Dec - 09:01:01 10° SSE 09:05:04 21° ESE 09:09:17 10° ENE daylight
10 Dec - 10:41:14 10° SW 10:46:35 51° WNW 10:52:15 10° NNE daylight
10 Dec - 17:44:23 10° NNE 17:46:49 13° NE 17:49:12 10° ENE visible
10 Dec - 19:24:09 10° NNW 19:29:52 74° ENE 19:35:08 10° SSE visible
10 Dec - 21:08:34 10° WNW 21:10:59 13° WSW 21:13:19 10° SW visible
11 Dec - 09:49:29 10° SSW 09:54:57 81° ESE 10:00:47 10° NNE daylight
11 Dec - 11:34:01 10° W 11:37:40 17° NW 11:41:25 10° N daylight
11 Dec - 18:32:52 10° NNW 18:38:07 37° NE 18:43:03 10° ESE visible
11 Dec - 20:15:09 10° NW 20:19:55 29° WSW 20:24:22 10° SSW visible
12 Dec - 08:58:34 10° S 09:03:34 38° ESE 09:08:52 10° NE daylight
12 Dec - 10:40:41 10° WSW 10:45:36 31° NW 10:50:45 10° N daylight
12 Dec - 17:42:00 10° N 17:46:07 20° NE 17:50:02 10° E visible
12 Dec - 19:23:01 10° NW 19:28:37 63° WSW 19:33:46 10° SSE visible
